Weather in Lyushchik

Russia / Pskov Oblast     57°00′56″N   29°54′31″E
temp.,
°C
wind,
m/s
gust,
m/s
humid.,
%
clouds,
%
prec.,
mm/h
press.,
hPa
HPBL,
m
24 october, sun
sun2400:00+3nw5109189 0.5 1011823
03:00+2nw5108395 0.6 1015753
06:00+2nw5108767 0.1 1018863
09:00+2nw587596 0.1 10201047
12:00+3nw576991 0.1 10241232
15:00+3wnw4767100 0.1 10251273
18:00+1wnw38805 0.1 1027374
21:00−1wnw2589100 0.1 1028118
25 october, mon
mon2500:00−1wsw238810 0.0 102854
03:00−1ssw2587100 0.0 1028124
06:00+2sw31187100 0.0 1027368
09:00+3sw41381100 0.0 1026488
12:00+5sw5127358 0.0 1025581
15:00+7sw511685 0.0 1024894
18:00+5sw513765 0.0 1023546
21:00+4sw5147695 0.0 1022483
26 october, tue
tue2600:00+4sw41474100 0.0 1021472
03:00+3sw41375100 0.0 1020396
06:00+3ssw41275100 0.0 1019382
09:00+3ssw41274100 0.0 1018412
12:00+6sw41165100 0.0 1017525
15:00+7sw41064100 0.0 1016635
18:00+5sw41072100 0.0 1016412
21:00+4sw41177100 0.0 1015370
27 october, wed
wed2700:00+4sw31080100 0.0 1015343
03:00+4sw31083100 0.0 1014304
06:00+5sw41282100 0.0 1012391
09:00+6wsw41293100 1.8 1012570
12:00+7wsw51086100 0.3 1013822
15:00+7w51081100 0.3 10141018
18:00+7wsw51282100 0.0 1015630
21:00+7wsw4117799 0.0 1016449
28 october, thu
thu2800:00+5sw399071 0.0 1016233
03:00+7ssw41192100 0.0 1014455
06:00+7ssw51391100 1.1 1011727
09:00+9sw51492100 3.0 1010710
12:00+9wsw51391100 2.6 1010825
15:00+11w51194100 3.1 1011720
18:00+11wnw4109497 0.2 1014522
21:00+8wnw389635 0.3 1016233